Regional Weather Roundup
Issued by NWS

Home | Current Version | Previous Version | Graphics & Text | Print | Product List | Glossary Off
Versions: 1 2 3 4 5 6 7 8 9 10 11 12 13 14 15 16 17 18 19 20 21 22 23 24 25 26 27 28 29 30 31 32 33 34 35 36 37 38 39 40 41 42 43 44 45 46 47 48 49 50

000
ASUS43 KMKX 222300
RWRWI

WISCONSIN REGIONAL WEATHER ROUNDUP
NATIONAL WEATHER SERVICE MILWAUKEE/SULLIVAN WI
600 PM CDT FRI JUL 22 2016

NOTE: "FAIR" INDICATES FEW OR NO CLOUDS BELOW 12,000 FEET WITH NO
SIGNIFICANT WEATHER AND/OR OBSTRUCTIONS TO VISIBILITY.

WIZ001-002-006>008-014>016-023>028-230000-
NORTHWEST WISCONSIN

CITY           SKY/WX    TMP DP  RH WIND       PRES   REMARKS
SUPERIOR ARPT  SUNNY     90  61  38 NW10      29.96S HX  90
ASHLAND        SUNNY     90  63  40 W7        29.96F HX  91
HAYWARD        MOSUNNY   88  66  48 VRB6      30.00F HX  90
SIREN          SUNNY     90  64  43 W3        30.00F HX  91
CUMBERLAND     SUNNY     86  61  42 NW7       30.01F HX  86
RICE LAKE      SUNNY     88  64  44 CALM      30.02S HX  89
CHETEK         SUNNY     90  66  45 CALM      30.00F HX  92
LADYSMITH      SUNNY     88  64  44 W6        30.02F HX  89
EAU CLAIRE     NOT AVBL
MENOMONIE      SUNNY     96  60  30 CALM      29.98F HX  96
NEW RICHMOND   SUNNY     91  59  33 NE5       29.99F HX  90
OSCEOLA        SUNNY     91  59  34 NW5       30.02S HX  90
$$

WIZ003>005-009-010-017-018-230000-
NORTH CENTRAL WISCONSIN

CITY           SKY/WX    TMP DP  RH WIND       PRES   REMARKS
MANITOWISH WTR SUNNY     86  60  41 NW15      30.01F HX  86
ARBOR VITAE    SUNNY     87  57  36 NW10      30.02S HX  86
WOODRUFF       SUNNY     87  57  36 NW10      30.02S HX  86
RHINELANDER    SUNNY     89  62  40 NW7       30.01S HX  89
EAGLE RIVER    SUNNY     87  51  28 N10       30.01S HX  85
LAND O LAKES   SUNNY     87  53  30 NW8G16    30.02S HX  85
PHILLIPS       SUNNY     86  64  47 W6        30.01S HX  88
TOMAHAWK       SUNNY     87  60  40 NW7       30.01S HX  87
MEDFORD        SUNNY     86  66  51 W5        30.01S HX  88
MERRILL        SUNNY     89  64  43 N6        30.00S HX  90
$$

WIZ029-030-035-036-043>047-230000-
CENTRAL WISCONSIN

CITY           SKY/WX    TMP DP  RH WIND       PRES   REMARKS
WAUSAU         SUNNY     90  64  42 W9        29.97S HX  91
MOSINEE        SUNNY     88  61  40 NW6       30.01S HX  88
MARSHFIELD     SUNNY     89  65  44 NW5       30.00S HX  91
STEVENS POINT  SUNNY     88  66  47 W7        29.98F HX  90
WAUPACA        SUNNY     93  61  33 W5        29.96F HX  93
WAUTOMA        SUNNY     91  66  43 W6        29.97S HX  93
WISC RAPIDS    SUNNY     92  55  28 N8        29.99S HX  90
CAMP DOUGLAS   NOT AVBL
$$

WIZ011>013-019>022-031-037>040-048>050-230000-
NORTHEAST WISCONSIN

CITY           SKY/WX    TMP DP  RH WIND       PRES   REMARKS
ANTIGO         SUNNY     87  64  45 NW8       30.00S HX  88
SHAWANO        SUNNY     92  63  37 W6        29.95S HX  93
OCONTO         SUNNY     90  68  48 SW6       29.92S HX  94
STURGEON BAY   SUNNY     89  68  49 SW8       29.94F HX  93
GREEN BAY      SUNNY     89  71  55 W5        29.94F HX  95
MANITOWOC      NOT AVBL
APPLETON       SUNNY     90  61  37 W7        29.95F HX  89
CLINTONVILLE   SUNNY     91  55  29 W7        29.95S HX  89
OSHKOSH        SUNNY     90  67  46 VRB5      29.95F HX  93
$$

WIZ032>034-041-042-053>061-230000-
SOUTHWEST WISCONSIN

CITY           SKY/WX    TMP DP  RH WIND       PRES   REMARKS
LA CROSSE      SUNNY     93  75  55 N3        29.95F HX 104
SPARTA         SUNNY     90  75  60 W5        29.98S HX 100
VIROQUA        PTSUNNY   88  77  69 W3        30.00F HX 101
BOSCOBEL       PTSUNNY   89  77  67 W3        29.97F HX 101
PRAIRIE DU CHI PTSUNNY   86  74  66 CALM      29.97S HX  94
PLATTEVILLE    SUNNY     86  79  80 S5        30.00S HX 100
$$

WIZ056-057-062-063-064-067-068-230000-
SOUTH CENTRAL WISCONSIN

CITY           SKY/WX    TMP DP  RH WIND       PRES   REMARKS
REEDSBURG      CLOUDY   N/A N/A N/A SW6       29.97S
BARABOO/DELLS  SUNNY     87  75  66 CALM      29.98S HX  97
LONE ROCK      NOT AVBL
MINERAL POINT  MOSUNNY   88  77  70 CALM      30.01S HX 100
MADISON        MOSUNNY   89  76  65 CALM      29.97F HX 100
MIDDLETON      MOSUNNY   90  76  63 W3        29.99F HX 102
WATERTOWN      MOSUNNY   88  76  67 W5        29.97S HX  98
MONROE         PTSUNNY   84  75  74 S5        30.00S HX  92
JANESVILLE     MOSUNNY   90  73  58 W6        29.98S HX  98
$$

WIZ051-052-058>065-066-070>072-230000-
SOUTHEAST WISCONSIN

CITY           SKY/WX    TMP DP  RH WIND       PRES   REMARKS
MILWAUKEE      MOSUNNY   86  70  58 SE7       29.96S HX  90
WAUKESHA       MOSUNNY   88  70  55 NW7       29.99S HX  92
MILWAUKEE/TIMM MOSUNNY   90  66  45 CALM      29.97F HX  92
RACINE         SUNNY     87  71  58 SE7       29.98S HX  93
BURLINGTON     MOSUNNY   89  74  62 NW7       29.97F HX  97
KENOSHA        MOSUNNY   90  74  59 W6        29.97S HX  99
FOND DU LAC    SUNNY     89  72  56 VRB5      29.96F HX  96
SHEBOYGAN      SUNNY     89  67  47 VRB5      29.96S HX  92
WEST BEND      SUNNY     88  61  40 W6        29.98R HX  88
JUNEAU         MOSUNNY   87  74  64 CALM      29.99S HX  95
$$

LSZ147-162-230000-
LAKE SUPERIOR

STATION/POSITION TIME  TEMP    WIND        PRES    WAVE
                       AIR SEA DIR/SP/G            HT/PER
                 (UTC) (F)     (DEG/KT/KT) (MB)    (FT/S)
W MID LAKE BUOY  2150   66 57  250/ 12/ 14 1012.8S   1/ 4
DEVILS ISLAND    2200   75     260/ 12/ 13 1013.7S
PORT WING        2140   84     270/  9/ 12 1014.6
SAXON HARBOR     2200   85     310/  2/  4 1014.6S
$$

LMZ867-665-643>646-230000-
LAKE MICHIGAN

STATION/POSITION TIME  TEMP    WIND        PRES    WAVE
                       AIR SEA DIR/SP/G            HT/PER
                 (UTC) (F)     (DEG/KT/KT) (MB)    (FT/S)
CHAMBERS ISLAND  2240   85     190/  7/ 12 1012.5F
S GREEN BAY BUOY 2200   80 76  190/  6/  8   N/A
N MID LAKE BUOY  2150   71 69  200/ 14/ 16 1012.4F   1/ 5
NORTHPORT PIER   2200   83     140/  6/  8 1012.5F
KEWAUNEE LAKESHO 2200   72                   N/A
SHEBOYGAN LAKESH 2200   75     150/ 14/ 14 1014.4F
PORT WASHINGTON  2240   81     200/  3/  6 1015.2F
MILWAUKEE LAKESH 2210   75     130/  1/  1   N/A
S MID LAKE BUOY  2150   76 74  210/  2/  2 1014.6F   1
KENOSHA   LAKESH 2200   78     160/  8/  9 1014.2F
$$

TC  - TEMPERATURE IN CELSIUS
VSB - VISIBILITY IN STATUTE MILES
WCI - WIND CHILL INDEX
HX  - HEAT INDEX





USA.gov is the U.S. government's official web portal to all federal, state and local government web resources and services.